Regional Weather Roundup
Issued by NWS

Home | Current Version | Previous Version | Text Only | Print | Product List | Glossary Off
Versions: 1 2 3 4 5 6 7 8 9 10 11 12 13 14 15 16 17 18 19 20 21 22 23 24 25 26 27 28 29 30 31 32 33 34 35 36 37 38 39 40 41 42 43 44 45 46 47 48 49 50

000
ASUS43 KFSD 021310
RWRSD

WEATHER ROUNDUP FOR SOUTH DAKOTA
NATIONAL WEATHER SERVICE SIOUX FALLS SD
800 AM CDT TUE SEP 02 2014

NOTE: "FAIR" INDICATES FEW OR NO CLOUDS BELOW 12,000 FEET WITH NO
SIGNIFICANT WEATHER AND/OR OBSTRUCTIONS TO VISIBILITY.


SDZ001>005-009-010-012>017-021400-
NORTHWEST AND NORTH CENTRAL SOUTH DAKOTA

CITY           SKY/WX    TMP DP  RH WIND       PRES   REMARKS
BUFFALO          N/A     51  44  77 W8        29.84S
FAITH            N/A     50  45  83 S12       29.91S
MOBRIDGE       CLEAR     52  50  93 S6        29.86S
$$

SDZ012>016-024>037-041>051-057-063-072>074-021400-
SOUTHWEST AND SOUTH CENTRAL SOUTH DAKOTA

CITY           SKY/WX    TMP DP  RH WIND       PRES   REMARKS
RAPID CTY ARPT CLEAR     49  41  74 CALM      29.96F
PIERRE         CLEAR     54  51  90 W13       29.91S
CUSTER         CLEAR     44  37  76 W6        30.07S
ELLSWORTH AFB  CLEAR     52  43  69 W9        29.95F
PHILIP         CLEAR     51  48  89 CALM      29.94F
PINE RIDGE     CLEAR     43  43 100 MISG      30.02R
WINNER         FAIR      54  49  83 SW9       29.96S
$$

SDZ004>011-016>023-039-040-021400-
NORTHEAST SOUTH DAKOTA

CITY           SKY/WX    TMP DP  RH WIND       PRES   REMARKS
ABERDEEN       SUNNY     50  50 100 S5        29.89R
WATERTOWN      SUNNY     54  53  97 S3        29.91S
SISSETON         N/A     58  53  84 CALM      29.86R
$$

SDZ017-020-022-023-036>040-048>070-021400-
SOUTHEAST SOUTH DAKOTA

CITY           SKY/WX    TMP DP  RH WIND       PRES   REMARKS
SIOUX FALLS    MOSUNNY   58  55  90 W3        29.94R
HURON          SUNNY     54  53  97 SE3       29.92S
CHAMBERLAIN    CLEAR     53  50  91 SW3       29.95S
MITCHELL       SUNNY     55  53  93 CALM      29.94R
YANKTON        SUNNY     57  54  88 W5        29.95R
$$

ABBREVIATIONS USED IN REMARKS
   TC - TEMPERATURE IN CELSIUS
  WCI - WIND CHILL INDEX
   HX - HEAT INDEX
  VSB - VISIBILITY




USA.gov is the U.S. government's official web portal to all federal, state and local government web resources and services.